Whiteclay, NE

2:01 PM MDT on July 23, 2016 (GMT -0600)
Pine Ridge

Weather History for KIEN - November, 2012

Change the Weather History Date:

Sunday, November 11, 2012

  Actual Average Record
Temperature  
Mean Temperature 14 °F 36 °F  
Max Temperature 26 °F 51 °F 75 °F (2005)
Min Temperature 2 °F 22 °F -6 °F (2014)
Degree Days  
Heating Degree Days 51 29  
Month to date heating degree days 288 289  
Since 1 July heating degree days 1035 1044  
Cooling Degree Days 0 0  
Month to date cooling degree days 0 0  
Year to date cooling degree days 1103 717  
Moisture  
Dew Point 7 °F    
Average Humidity 71    
Maximum Humidity 86    
Minimum Humidity 55    
Precipitation  
Precipitation T in 0.03 in 0.14 in (2000)
Month to date precipitation T 0.28  
Year to date precipitation 10.23 16.88  
Sea Level Pressure  
Sea Level Pressure 30.13 in    
Wind  
Wind Speed 11 mph (West)    
Max Wind Speed 25 mph    
Max Gust Speed 33 mph    
Visibility 10 miles    
Events      
T = Trace of Precipitation, MM = Missing Value Source: NWS Daily Summary

Daily Weather History Graph

Daily Weather History Graph

Search for Another Location

Airport or City:

Trip Planner

Search our weather history database for the weather conditions in past years. The results will help you decide how hot, cold, wet, or windy it might be!

Date:

Astronomy

Nov. 11, 2012 Rise Set
Actual Time 6:38 AM MST 4:29 PM MST
Civil Twilight 6:07 AM MST 5:00 PM MST
Nautical Twilight 5:33 AM MST 5:34 PM MST
Astronomical Twilight 5:00 AM MST 6:07 PM MST
Moon 3:51 AM MST (11/11) 2:57 PM MST (11/11)
Length of Visible Light 10h 52m
Length of Day
9h 51m
Waning Crescent, 7% of the Moon is Illuminated
Nov 11
Waning Crescent
Nov 13
New
Nov 20
First Quarter
Nov 28
Full
Dec 6
Last Quarter

Hourly Weather History & Observations

Time (MST) Temp. Windchill Dew Point Humidity Pressure Visibility Wind Dir Wind Speed Gust Speed Precip Events Conditions
12:52 AM 18.0 °F - 8.1 °F 65% 30.01 in 10.0 mi Calm Calm - N/A   Overcast
1:52 AM 17.1 °F 10.0 °F 10.0 °F 74% 30.02 in 10.0 mi SE 4.6 mph - N/A   Overcast
2:52 AM 15.1 °F 7.7 °F 8.1 °F 74% 30.05 in 10.0 mi WSW 4.6 mph - N/A   Overcast
3:52 AM 12.9 °F 2.6 °F 6.1 °F 74% 30.08 in 10.0 mi West 6.9 mph - 0.00 in   Overcast
4:52 AM 7.0 °F 0.1 °F 1.9 °F 80% 30.11 in 10.0 mi WSW 3.5 mph - N/A   Mostly Cloudy
5:03 AM 5.0 °F - 1.4 °F 85% 29.95 in 10.0 mi Calm Calm - N/A   Scattered Clouds
5:52 AM 3.9 °F -9.4 °F -0.9 °F 80% 30.12 in 10.0 mi WSW 8.1 mph - N/A   Mostly Cloudy
6:16 AM 3.2 °F -7.8 °F -0.4 °F 85% 29.95 in 10.0 mi West 5.8 mph - N/A   Scattered Clouds
6:52 AM 7.0 °F -6.6 °F 1.0 °F 77% 30.12 in 10.0 mi WSW 9.2 mph - N/A   Clear
7:52 AM 10.0 °F -1.9 °F 3.0 °F 73% 30.14 in 10.0 mi WSW 8.1 mph - N/A   Clear
8:52 AM 14.0 °F 1.2 °F 3.9 °F 64% 30.14 in 10.0 mi West 10.4 mph 19.6 mph N/A   Clear
9:52 AM 16.0 °F 0.6 °F 6.1 °F 65% 30.13 in 10.0 mi West 16.1 mph 21.9 mph N/A   Clear
11:52 AM 19.9 °F 5.7 °F 9.0 °F 62% 30.12 in 10.0 mi West 16.1 mph 26.5 mph N/A   Clear
12:52 PM 23.0 °F 8.3 °F 10.0 °F 58% 30.09 in 10.0 mi West 19.6 mph 33.4 mph N/A   Clear
1:52 PM 25.0 °F 11.7 °F 12.0 °F 58% 30.09 in 10.0 mi West 17.3 mph 26.5 mph N/A   Clear
2:52 PM 26.1 °F 14.0 °F 12.0 °F 55% 30.11 in 10.0 mi West 15.0 mph 24.2 mph N/A   Clear
3:52 PM 24.1 °F 12.0 °F 10.0 °F 55% 30.14 in 10.0 mi West 13.8 mph - N/A   Clear
4:52 PM 23.0 °F 9.6 °F 10.0 °F 58% 30.17 in 10.0 mi West 16.1 mph 23.0 mph N/A   Clear
5:52 PM 23.0 °F 11.7 °F 10.0 °F 58% 30.22 in 10.0 mi West 11.5 mph - N/A   Clear
6:52 PM 21.0 °F 10.6 °F 10.9 °F 65% 30.23 in 10.0 mi WNW 9.2 mph - N/A   Scattered Clouds
7:52 PM 21.9 °F 10.4 °F 10.9 °F 63% 30.23 in 10.0 mi West 11.5 mph 19.6 mph N/A   Overcast
8:52 PM 19.9 °F 9.3 °F 10.0 °F 65% 30.25 in 10.0 mi West 9.2 mph 17.3 mph N/A   Mostly Cloudy
9:52 PM 18.0 °F 7.7 °F 10.0 °F 71% 30.26 in 10.0 mi WSW 8.1 mph - N/A   Clear
10:52 PM 17.1 °F 6.6 °F 9.0 °F 71% 30.26 in 10.0 mi West 8.1 mph - N/A   Clear
11:52 PM 17.1 °F 6.6 °F 8.1 °F 68% 30.27 in 10.0 mi West 8.1 mph - N/A   Scattered Clouds